TV
NORAD ID: 24786
Int'l Code: 1997-019A
Perigee: 35,779.9 km
Apogee: 35,810.8 km
Inclination: 4.0°
Period: 1,436.2 min
Semi major axis: 42,166.3 km
Launch date: April 25, 1997
Source: United States (US)
Comments: Cloud cover images, monitor atmospheric temperatures and moistures at many altitudes.
Two Line Element Set (TLE):
1 24786U 97019A 09321.36542434 -.00000281 00000-0 10000-3 0 1830
2 24786 004.0073 072.6082 0003659 209.4276 206.1323 01.00266091 46047
More details about GOES 10